Athens, OH

3:30 PM EDT on June 25, 2017 (GMT -0400)
Ohio University

Weather History for KUNI - April, 2014

Change the Weather History Date:

Friday, April 4, 2014

  Actual Average (KPKB) Record (KPKB)
Temperature  
Mean Temperature 56 °F -  
Max Temperature 68 °F 60 °F 86 °F (1986)
Min Temperature 43 °F 39 °F 22 °F (1964)
Degree Days  
Heating Degree Days 10    
Growing Degree Days 6 (Base 50)    
Moisture  
Dew Point 51 °F    
Average Humidity 81    
Maximum Humidity 97    
Minimum Humidity 57    
Precipitation  
Precipitation 0.00 in - - ()
Sea Level Pressure  
Sea Level Pressure 29.72 in    
Wind  
Wind Speed 7 mph (WSW)    
Max Wind Speed 29 mph    
Max Gust Speed 41 mph    
Visibility 8 miles    
Events Fog , Rain , Thunderstorm    
Averages and records for this station are not official NWS values.
T = Trace of Precipitation, MM = Missing Value Source: NWS Daily Summary

Daily Weather History Graph

Daily Weather History Graph

Search for Another Location

Airport or City:

Trip Planner

Search our weather history database for the weather conditions in past years. The results will help you decide how hot, cold, wet, or windy it might be!

Date:

Astronomy

Apr. 04, 2014 Rise Set
Actual Time 7:08 AM EDT 7:55 PM EDT
Civil Twilight 6:41 AM EDT 8:22 PM EDT
Nautical Twilight 6:09 AM EDT 8:54 PM EDT
Astronomical Twilight 5:36 AM EDT 9:28 PM EDT
Moon 10:26 AM EDT (4/4) 12:11 AM EDT (4/4)
Length of Visible Light 13h 41m
Length of Day
12h 46m
Waxing Crescent, 25% of the Moon is Illuminated
Apr 4
Waxing Crescent
Apr 7
First Quarter
Apr 15
Full
Apr 22
Last Quarter
Apr 29
New

Hourly Weather History & Observations

Time (EDT) Temp. Windchill Dew Point Humidity Pressure Visibility Wind Dir Wind Speed Gust Speed Precip Events Conditions
12:15 AM 58.3 °F - 55.9 °F 92% 29.78 in 10.0 mi South 4.6 mph - N/A   Clear
12:55 AM 57.9 °F - 56.1 °F 94% 29.77 in 10.0 mi South 4.6 mph - N/A   Clear
1:15 AM 57.6 °F - 55.6 °F 93% 29.78 in 10.0 mi Calm Calm - N/A   Clear
1:35 AM 55.4 °F - 53.8 °F 94% 29.78 in 5.0 mi Calm Calm - N/A   Clear
1:55 AM 55.2 °F - 53.8 °F 95% 29.78 in 2.0 mi Calm Calm - N/A   Scattered Clouds
2:15 AM 53.4 °F - 52.0 °F 95% 29.77 in 0.5 mi Calm Calm - N/A Fog Fog
2:35 AM 53.2 °F - 52.0 °F 95% 29.77 in 0.5 mi Calm Calm - N/A Fog Fog
2:55 AM 53.4 °F - 52.2 °F 95% 29.77 in 0.5 mi Calm Calm - N/A Fog Fog
3:15 AM 52.0 °F - 50.7 °F 95% 29.75 in 0.5 mi Calm Calm - N/A Fog Fog
3:35 AM 51.4 °F - 50.4 °F 96% 29.75 in 0.8 mi Calm Calm - N/A   Mostly Cloudy
3:55 AM 52.0 °F - 50.9 °F 96% 29.74 in 1.2 mi Calm Calm - N/A   Mostly Cloudy
4:15 AM 52.0 °F - 50.9 °F 96% 29.73 in 10.0 mi Calm Calm - N/A   Mostly Cloudy
4:35 AM 53.1 °F - 52.0 °F 96% 29.72 in 7.0 mi Calm Calm - N/A Rain Light Rain
4:55 AM 53.4 °F - 52.3 °F 96% 29.73 in 10.0 mi Calm Calm - N/A Rain Light Rain
5:15 AM 54.7 °F - 53.8 °F 97% 29.72 in 3.0 mi NNW 9.2 mph - N/A Rain , Thunderstorm Heavy Thunderstorms and Rain
5:35 AM 55.9 °F - 54.9 °F 96% 29.72 in 1.5 mi SE 5.8 mph - N/A Rain , Thunderstorm Heavy Thunderstorms and Rain
5:55 AM 56.5 °F - 55.4 °F 96% 29.71 in 4.0 mi SE 3.5 mph - N/A Rain , Thunderstorm Rain
6:15 AM 56.8 °F - 55.8 °F 96% 29.70 in 10.0 mi Calm Calm - N/A Rain , Thunderstorm Light Thunderstorms and Rain
6:35 AM 56.3 °F - 55.2 °F 96% 29.70 in 2.5 mi Calm Calm - N/A Rain Heavy Rain
6:55 AM 57.4 °F - 56.3 °F 96% 29.69 in 7.0 mi SE 3.5 mph - N/A Rain Rain
7:15 AM 58.1 °F - 56.8 °F 96% 29.68 in 7.0 mi SE 3.5 mph - N/A Rain Light Rain
7:35 AM 58.1 °F - 57.2 °F 97% 29.68 in 10.0 mi Calm Calm - N/A   Overcast
7:55 AM 57.2 °F - 56.3 °F 97% 29.69 in 10.0 mi West 3.5 mph - N/A Thunderstorm Thunderstorm
8:15 AM 56.8 °F - 55.8 °F 96% 29.67 in 3.0 mi Calm Calm - N/A Rain Heavy Rain
8:35 AM 57.2 °F - 56.3 °F 97% 29.65 in 4.0 mi Calm Calm - N/A Rain Light Rain
8:55 AM 57.9 °F - 56.8 °F 96% 29.65 in 7.0 mi Calm Calm - N/A   Mostly Cloudy
9:15 AM 58.6 °F - 57.6 °F 96% 29.64 in 10.0 mi Calm Calm - N/A   Overcast
9:35 AM 58.1 °F - 57.0 °F 96% 29.63 in 10.0 mi West 3.5 mph - N/A   Overcast
9:55 AM 58.1 °F - 56.8 °F 96% 29.64 in 4.0 mi West 4.6 mph - N/A Rain Heavy Rain
10:15 AM 58.1 °F - 56.8 °F 96% 29.64 in 3.0 mi West 3.5 mph - N/A Rain Rain
10:35 AM 58.1 °F - 57.2 °F 97% 29.64 in 5.0 mi South 5.8 mph - N/A Rain Light Rain
10:55 AM 58.6 °F - 57.6 °F 96% 29.64 in 4.0 mi SSW 5.8 mph - N/A Rain Heavy Rain
11:15 AM 59.0 °F - 57.7 °F 96% 29.63 in 10.0 mi South 5.8 mph - N/A Rain Rain
11:35 AM 59.4 °F - 58.1 °F 96% 29.64 in 7.0 mi SSW 6.9 mph - N/A Rain Light Rain
12:15 PM 61.0 °F - 58.8 °F 93% 29.61 in 10.0 mi SSW 8.1 mph - N/A Rain Light Rain
12:35 PM 62.6 °F - 59.0 °F 88% 29.58 in 10.0 mi South 8.1 mph - N/A   Mostly Cloudy
12:55 PM 64.4 °F - 59.4 °F 84% 29.59 in 10.0 mi South 9.2 mph - N/A   Scattered Clouds
1:15 PM 66.2 °F - 59.5 °F 79% 29.61 in 10.0 mi SSW 10.4 mph 16.1 mph N/A   Clear
1:35 PM 68.2 °F - 55.4 °F 64% 29.61 in 10.0 mi WSW 24.2 mph 31.1 mph N/A   Scattered Clouds
2:15 PM 67.5 °F - 53.6 °F 61% 29.61 in 10.0 mi SW 17.3 mph 28.8 mph N/A   Overcast
2:35 PM 64.6 °F - 56.1 °F 74% 29.61 in 10.0 mi WSW 16.1 mph 23.0 mph N/A   Overcast
2:55 PM 65.3 °F - 55.2 °F 70% 29.62 in 10.0 mi WSW 13.8 mph 27.6 mph N/A   Overcast
3:15 PM 65.3 °F - 55.4 °F 70% 29.62 in 10.0 mi WSW 10.4 mph - N/A   Overcast
3:35 PM 62.6 °F - 54.3 °F 74% 29.63 in 5.0 mi SW 21.9 mph 32.2 mph N/A Rain Light Rain
3:55 PM 62.2 °F - 54.9 °F 77% 29.62 in 10.0 mi WSW 20.7 mph 32.2 mph N/A   Overcast
4:15 PM 64.9 °F - 55.6 °F 72% 29.62 in 10.0 mi SW 18.4 mph 26.5 mph N/A   Scattered Clouds
4:55 PM 67.1 °F - 52.5 °F 59% 29.61 in 10.0 mi SW 15.0 mph 32.2 mph N/A   Scattered Clouds
5:15 PM 67.3 °F - 52.9 °F 60% 29.62 in 10.0 mi SSW 13.8 mph 19.6 mph N/A   Scattered Clouds
5:35 PM 66.9 °F - 51.8 °F 58% 29.63 in 10.0 mi SW 18.4 mph 27.6 mph N/A   Mostly Cloudy
5:55 PM 65.7 °F - 51.1 °F 59% 29.64 in 10.0 mi WSW 17.3 mph 26.5 mph N/A   Scattered Clouds
6:15 PM 64.0 °F - 49.5 °F 59% 29.67 in 10.0 mi West 26.5 mph 35.7 mph N/A   Mostly Cloudy
6:35 PM 61.5 °F - 47.8 °F 61% 29.69 in 10.0 mi West 28.8 mph 41.4 mph N/A   Scattered Clouds
6:55 PM 59.2 °F - 46.8 °F 63% 29.72 in 10.0 mi West 20.7 mph 34.5 mph N/A   Mostly Cloudy
7:15 PM 57.6 °F - 45.7 °F 65% 29.73 in 10.0 mi West 24.2 mph 34.5 mph N/A   Mostly Cloudy
7:35 PM 56.3 °F - 44.2 °F 64% 29.75 in 10.0 mi West 20.7 mph 32.2 mph N/A   Scattered Clouds
7:55 PM 54.1 °F - 42.4 °F 65% 29.77 in 10.0 mi West 24.2 mph 32.2 mph N/A   Mostly Cloudy
8:15 PM 52.5 °F - 40.5 °F 64% 29.79 in 10.0 mi West 20.7 mph 29.9 mph N/A   Mostly Cloudy
8:35 PM 50.7 °F - 37.2 °F 60% 29.81 in 10.0 mi West 23.0 mph 27.6 mph N/A   Mostly Cloudy
8:55 PM 50.0 °F - 36.3 °F 59% 29.82 in 10.0 mi West 20.7 mph 27.6 mph N/A   Mostly Cloudy
9:15 PM 48.7 °F - 34.5 °F 58% 29.84 in 10.0 mi West 18.4 mph 35.7 mph N/A   Overcast
9:35 PM 47.5 °F - 32.7 °F 57% 29.86 in 10.0 mi West 20.7 mph 32.2 mph N/A   Overcast
9:55 PM 46.9 °F - 32.7 °F 58% 29.88 in 10.0 mi West 16.1 mph 23.0 mph N/A   Overcast
10:15 PM 46.6 °F - 33.8 °F 61% 29.89 in 10.0 mi West 13.8 mph 18.4 mph N/A   Overcast
10:35 PM 45.3 °F 39.0 °F 33.4 °F 63% 29.91 in 10.0 mi West 13.8 mph 24.2 mph N/A   Overcast
10:55 PM 44.1 °F 35.9 °F 31.8 °F 62% 29.92 in 10.0 mi West 19.6 mph 33.4 mph N/A   Overcast
11:15 PM 43.7 °F 36.3 °F 31.3 °F 62% 29.93 in 10.0 mi West 16.1 mph 25.3 mph N/A   Overcast
11:35 PM 43.3 °F 37.2 °F 31.6 °F 63% 29.94 in 10.0 mi West 11.5 mph 21.9 mph N/A   Overcast
11:55 PM 43.2 °F 36.6 °F 31.1 °F 62% 29.94 in 10.0 mi West 12.7 mph 19.6 mph N/A   Overcast